| time (UTC) | temp F | wind direction | speed MPH | gust MPH | rain 1hr in | rain 24hr in | rain mn in | humidity % | barometer mb |
| 20260508013053 | 66 | 89 | 5.0 | 7.0 | 0.00 | 0.01 | 0.00 | 37 | 1016.5 |
| 20260508011554 | 66 | 76 | 5.0 | 7.0 | 0.00 | 0.01 | 0.00 | 36 | 1016.6 |
| 20260508010051 | 67 | 107 | 4.0 | 6.0 | 0.00 | 0.01 | 0.00 | 35 | 1016.9 |
| 20260508004550 | 67 | 102 | 4.0 | 7.0 | 0.00 | 0.01 | 0.00 | 34 | 1016.9 |
| 20260508003042 | 67 | 93 | 4.0 | 7.0 | 0.00 | 0.01 | 0.00 | 33 | 1016.9 |
| 20260508001554 | 67 | 96 | 4.0 | 7.0 | 0.00 | 0.01 | 0.00 | 33 | 1016.9 |
| 20260508000049 | 66 | 87 | 2.0 | 8.0 | 0.00 | 0.01 | 0.00 | 33 | 1017.0 |
| 20260507234555 | 66 | 93 | 5.0 | 9.0 | 0.00 | 0.01 | 0.00 | 32 | 1017.0 |
| 20260507233048 | 66 | 88 | 6.0 | 8.0 | 0.00 | 0.01 | 0.00 | 36 | 1017.1 |
| 20260507231502 | 66 | 93 | 6.0 | 9.0 | 0.00 | 0.01 | 0.00 | 36 | 1017.3 |
| 20260507230040 | 66 | 88 | 5.0 | 8.0 | 0.00 | 0.01 | 0.00 | 37 | 1017.7 |
| 20260507224556 | 67 | 86 | 5.0 | 8.0 | 0.00 | 0.01 | 0.00 | 39 | 1017.7 |
| 20260507223050 | 67 | 86 | 6.0 | 9.0 | 0.00 | 0.01 | 0.00 | 38 | 1017.7 |
| 20260507221547 | 67 | 90 | 5.0 | 7.0 | 0.00 | 0.01 | 0.00 | 37 | 1017.4 |
| 20260507220042 | 68 | 88 | 4.0 | 6.0 | 0.00 | 0.01 | 0.00 | 35 | 1017.5 |
| 20260507214557 | 68 | 80 | 3.0 | 4.0 | 0.00 | 0.01 | 0.00 | 33 | 1017.6 |
| 20260507213154 | 67 | 89 | 3.0 | 6.0 | 0.00 | 0.01 | 0.00 | 34 | 1017.6 |
| 20260507211550 | 67 | 86 | 2.0 | 4.0 | 0.00 | 0.01 | 0.00 | 36 | 1017.7 |
| 20260507210055 | 67 | 84 | 3.0 | 5.0 | 0.00 | 0.01 | 0.01 | 38 | 1017.6 |
| 20260507204540 | 68 | 86 | 2.0 | 4.0 | 0.00 | 0.01 | 0.01 | 46 | 1017.6 |
| 20260507203107 | 67 | 79 | 2.0 | 5.0 | 0.00 | 0.01 | 0.01 | 46 | 1017.4 |
| 20260507201543 | 67 | 94 | 4.0 | 6.0 | 0.00 | 0.01 | 0.01 | 42 | 1017.6 |
| 20260507200037 | 67 | 9 | 1.0 | 4.0 | 0.00 | 0.01 | 0.01 | 39 | 1017.6 |
| 20260507194617 | 67 | 9 | 0.0 | 0.0 | 0.00 | 0.01 | 0.01 | 41 | 1017.8 |
| 20260507193058 | 67 | 9 | 0.0 | 3.0 | 0.00 | 0.01 | 0.01 | 37 | 1017.8 |
| 20260507191548 | 66 | 9 | 1.0 | 4.0 | 0.00 | 0.01 | 0.01 | 47 | 1018.1 |
| 20260507190046 | 65 | 82 | 1.0 | 6.0 | 0.00 | 0.01 | 0.01 | 47 | 1017.8 |
| 20260507184543 | 65 | 89 | 3.0 | 6.0 | 0.00 | 0.01 | 0.01 | 47 | 1017.9 |
| 20260507183058 | 65 | 86 | 2.0 | 4.0 | 0.00 | 0.01 | 0.01 | 48 | 1017.8 |
| 20260507181549 | 65 | 86 | 2.0 | 4.0 | 0.00 | 0.01 | 0.01 | 50 | 1017.8 |
| 20260507180048 | 65 | 86 | 3.0 | 4.0 | 0.00 | 0.01 | 0.01 | 50 | 1017.7 |
| 20260507174549 | 65 | 86 | 2.0 | 4.0 | 0.00 | 0.01 | 0.01 | 53 | 1017.5 |
| 20260507173115 | 65 | 86 | 2.0 | 6.0 | 0.00 | 0.01 | 0.01 | 49 | 1017.6 |
| 20260507171543 | 65 | 82 | 5.0 | 8.0 | 0.00 | 0.01 | 0.01 | 54 | 1017.3 |
| 20260507170056 | 65 | 92 | 3.0 | 6.0 | 0.00 | 0.01 | 0.01 | 58 | 1017.3 |
| 20260507164551 | 66 | 92 | 4.0 | 6.0 | 0.00 | 0.01 | 0.01 | 56 | 1017.2 |
| 20260507163046 | 66 | 92 | 3.0 | 6.0 | 0.00 | 0.01 | 0.01 | 51 | 1017.3 |
| 20260507161549 | 66 | 92 | 2.0 | 4.0 | 0.00 | 0.01 | 0.01 | 50 | 1017.3 |
| 20260507160041 | 66 | 92 | 2.0 | 6.0 | 0.00 | 0.01 | 0.01 | 51 | 1017.2 |
| 20260507154554 | 66 | 109 | 5.0 | 8.0 | 0.00 | 0.01 | 0.01 | 50 | 1017.2 |
| 20260507153058 | 67 | 96 | 3.0 | 4.0 | 0.00 | 0.01 | 0.01 | 46 | 1017.4 |
| 20260507151546 | 69 | 96 | 2.0 | 3.0 | 0.00 | 0.01 | 0.01 | 40 | 1017.3 |
| 20260507150043 | 68 | 102 | 3.0 | 4.0 | 0.00 | 0.01 | 0.01 | 44 | 1017.1 |
| 20260507144543 | 68 | 93 | 2.0 | 3.0 | 0.00 | 0.01 | 0.01 | 42 | 1017.4 |
| 20260507143054 | 68 | 93 | 2.0 | 4.0 | 0.00 | 0.01 | 0.01 | 46 | 1017.2 |
| 20260507141559 | 67 | 111 | 2.0 | 4.0 | 0.00 | 0.01 | 0.01 | 57 | 1017.3 |
| 20260507140051 | 67 | 127 | 1.0 | 3.0 | 0.00 | 0.01 | 0.01 | 59 | 1017.8 |
| 20260507134553 | 68 | 129 | 3.0 | 7.0 | 0.00 | 0.01 | 0.01 | 56 | 1017.8 |
| 20260507133116 | 69 | 122 | 4.0 | 8.0 | 0.00 | 0.01 | 0.01 | 53 | 1017.1 |
| 20260507131546 | 69 | 111 | 5.0 | 7.0 | 0.00 | 0.01 | 0.01 | 44 | 1017.6 |
| 20260507130038 | 69 | 112 | 5.0 | 8.0 | 0.00 | 0.01 | 0.01 | 52 | 1017.6 |
| 20260507124653 | 69 | 109 | 5.0 | 8.0 | 0.00 | 0.01 | 0.01 | 53 | 1017.5 |
| 20260507123050 | 69 | 104 | 6.0 | 10.0 | 0.00 | 0.01 | 0.01 | 47 | 1017.9 |
| 20260507121544 | 69 | 111 | 7.0 | 11.0 | 0.00 | 0.01 | 0.01 | 54 | 1018.0 |
| 20260507120038 | 69 | 117 | 7.0 | 11.0 | 0.00 | 0.01 | 0.01 | 54 | 1017.8 |
| 20260507114610 | 66 | 114 | 7.0 | 10.0 | 0.00 | 0.01 | 0.01 | 58 | 1017.8 |
| 20260507113054 | 64 | 89 | 7.0 | 10.0 | 0.00 | 0.01 | 0.01 | 61 | 1017.8 |
| 20260507111608 | 63 | 98 | 6.0 | 10.0 | 0.00 | 0.01 | 0.01 | 62 | 1017.9 |
| 20260507110043 | 64 | 109 | 6.0 | 10.0 | 0.00 | 0.01 | 0.01 | 62 | 1017.8 |
| 20260507104543 | 63 | 111 | 8.0 | 10.0 | 0.00 | 0.01 | 0.01 | 65 | 1017.8 |
| 20260507103044 | 63 | 109 | 7.0 | 10.0 | 0.00 | 0.01 | 0.01 | 64 | 1018.0 |
| 20260507101554 | 64 | 128 | 5.0 | 8.0 | 0.00 | 0.01 | 0.01 | 66 | 1018.2 |
| 20260507100053 | 64 | 138 | 3.0 | 8.0 | 0.00 | 0.01 | 0.01 | 72 | 1018.3 |
| 20260507094557 | 63 | 134 | 6.0 | 9.0 | 0.00 | 0.01 | 0.01 | 72 | 1018.5 |
| 20260507093044 | 63 | 124 | 6.0 | 10.0 | 0.00 | 0.01 | 0.01 | 71 | 1018.6 |
| 20260507091542 | 63 | 142 | 6.0 | 12.0 | 0.00 | 0.01 | 0.01 | 70 | 1018.7 |
| 20260507090036 | 63 | 130 | 7.0 | 12.0 | 0.00 | 0.01 | 0.01 | 69 | 1018.5 |
| 20260507084557 | 63 | 101 | 8.0 | 12.0 | 0.00 | 0.01 | 0.01 | 68 | 1018.3 |
| 20260507083050 | 63 | 114 | 8.0 | 13.0 | 0.00 | 0.01 | 0.01 | 65 | 1018.2 |
| 20260507081547 | 63 | 121 | 8.0 | 12.0 | 0.00 | 0.01 | 0.01 | 64 | 1017.9 |
| 20260507080044 | 63 | 105 | 7.0 | 12.0 | 0.00 | 0.01 | 0.01 | 63 | 1017.9 |
| 20260507074549 | 62 | 115 | 7.0 | 11.0 | 0.00 | 0.01 | 0.01 | 63 | 1018.1 |
| 20260507073048 | 61 | 137 | 6.0 | 13.0 | 0.00 | 0.01 | 0.01 | 63 | 1017.7 |
| 20260507071556 | 63 | 113 | 8.0 | 15.0 | 0.00 | 0.01 | 0.01 | 62 | 1017.5 |
| 20260507070057 | 66 | 123 | 8.0 | 12.0 | 0.00 | 0.01 | 0.01 | 58 | 1017.3 |
| 20260507064557 | 66 | 87 | 6.0 | 12.0 | 0.00 | 0.01 | 0.01 | 56 | 1017.3 |
| 20260507063048 | 63 | 96 | 6.0 | 10.0 | 0.00 | 0.01 | 0.01 | 61 | 1017.3 |
| 20260507061541 | 63 | 97 | 4.0 | 6.0 | 0.00 | 0.01 | 0.01 | 60 | 1017.2 |
| 20260507060040 | 61 | 98 | 5.0 | 9.0 | 0.00 | 0.01 | 0.01 | 62 | 1017.3 |
| 20260507054558 | 64 | 104 | 4.0 | 6.0 | 0.00 | 0.01 | 0.01 | 59 | 1017.1 |
| 20260507053113 | 63 | 89 | 5.0 | 7.0 | 0.00 | 0.01 | 0.01 | 58 | 1017.1 |
| 20260507051550 | 62 | 278 | 1.0 | 2.0 | 0.00 | 0.01 | 0.01 | 61 | 1017.1 |
| 20260507050046 | 65 | 360 | 0.0 | 1.0 | 0.00 | 0.01 | 0.01 | 51 | 1017.0 |
| 20260507044558 | 61 | 360 | 0.0 | 4.0 | 0.00 | 0.01 | 0.01 | 56 | 1016.9 |
| 20260507043037 | 59 | 257 | 6.0 | 9.0 | 0.00 | 0.01 | 0.01 | 76 | 1016.9 |
| 20260507041555 | 60 | 251 | 3.0 | 5.0 | 0.00 | 0.01 | 0.01 | 78 | 1016.7 |
| 20260507040049 | 60 | 257 | 3.0 | 6.0 | 0.00 | 0.01 | 0.01 | 78 | 1016.5 |
| 20260507034548 | 60 | 247 | 4.0 | 7.0 | 0.00 | 0.01 | 0.01 | 78 | 1016.4 |
| 20260507033100 | 60 | 241 | 4.0 | 7.0 | 0.01 | 0.01 | 0.01 | 78 | 1016.3 |
| 20260507031554 | 60 | 241 | 0.0 | 0.0 | 0.01 | 0.01 | 0.01 | 78 | 1016.0 |
| 20260507030047 | 60 | 241 | 0.0 | 2.0 | 0.01 | 0.01 | 0.01 | 78 | 1015.6 |
| 20260507024613 | 58 | 241 | 1.0 | 3.0 | 0.01 | 0.01 | 0.01 | 78 | 1015.5 |
| 20260507023054 | 60 | 241 | 2.0 | 3.0 | 0.00 | 0.00 | 0.00 | 78 | 1015.6 |
| 20260507021554 | 60 | 241 | 2.0 | 4.0 | 0.00 | 0.00 | 0.00 | 78 | 1015.6 |
| 20260507020055 | 61 | 241 | 2.0 | 4.0 | 0.00 | 0.00 | 0.00 | 78 | 1015.6 |
| 20260507014552 | 61 | 241 | 3.0 | 4.0 | 0.00 | 0.00 | 0.00 | 78 | 1015.6 |